LiveATC.Net - Listen to live air traffic control over the Internet!


ICAO: OKBK  IATA: KWI   Airport: Kuwait International Airport
City: Kuwait City
Country: Kuwait   Continent: Asia
OKBK METAR Weather: OKBK 161400Z 16018KT 6000 -BLDU FEW030CB SCT040 BKN080 20/18 Q1009 NOSIG
OKBK Flight Activity (FlightAware)

OKBK Gnd/Twr/App/Radar
Feed Status: UP   Listeners: 4
Listen in your browser - HTML5 player (in browser, HTML5)
Click here to listen with your own player (launches your MP3 player)
Archive Access: OKBK Gnd/Twr/App/Radar
FacilityFrequency
Kuwait Approach121.300
Kuwait Approach124.800
Kuwait Ground121.700
Kuwait Radar (Center)125.300
Kuwait Tower118.300

NOTICE

Unauthorized use prohibited. See LiveATC.net Terms of Service


Airport/ARTCC Code
Frequency Search
(e.g., 124.400, 128.75)
Site-wide search
 


Browse Feeds
Top 50 Feeds
Coverage Map
Bad Weather Areas

LiveATC FAQ
Offer LiveATC feed
Contact LiveATC.net
Press Inquiries

LiveATC on iPhone
LiveATC on Android

Windows Phone
Windows 8/10

LiveATC Mobile
(Mobile browser)

ATC Audio Archives
Interesting Recordings

LiveATC Forums


Home Page
About LiveATC.net
Make a Donation
Terms of Use
Privacy Policy

Canadian Air Freqs

AIRMETs/SIGMETs

FAA Airport Status
Nat'l Airspace Status
Arrival Demand Charts


Server Software By:
Icecast.org
Liquidsoap